Location: Ferintosh
(52.7647°N, 112.9692°W)
Time: 04:05:32
(UTC+00:00)

S-56A Canister/Altair - Pass Details

Date: 28 May 2024
Orbit: 637 x 2488 km, 38.9° (Epoch: 23 June)

Event Time Altitude Azimuth Distance (km) Brightness Sun altitude
Rises 13:39:29 0° 246° (WSW) 6,053 11.5 18.5°
Reaches altitude 10° 13:44:01 10° 239° (WSW) 4,899 11.1 19.2°
Maximum altitude 13:55:51 39° 179° (S) 2,598 10.4 21.0°
Drops below altitude 10° 14:04:31 10° 115° (ESE) 3,597 12.1 22.3°
Sets 14:07:18 0° 107° (ESE) 4,334 12.5 22.7°
